This is the latest recevied weather packets stored in our database for station/object KQ4HEI. If no packets are shown the sender has not sent any weather packets the latest 10 day(s).
| Time | Temp. | Humidity | Pressure | Rain* | Wind** | Luminosity | Snow |
|---|---|---|---|---|---|---|---|
| 1777681293 | 16.67° C | 99% | 1009.5 hPa | 0 mm | - | - | - |
| 1777680692 | 16.67° C | 99% | 1009.4 hPa | 0 mm | - | - | - |
| 1777680092 | 16.67° C | 99% | 1009.4 hPa | 0 mm | - | - | - |
| 1777679492 | 16.67° C | 99% | 1009.4 hPa | 0 mm | - | - | - |
| 1777678892 | 16.67° C | 99% | 1009.5 hPa | 1.02 mm | - | - | - |
| 1777678293 | 16.67° C | 99% | 1009.6 hPa | 1.02 mm | - | - | - |
| 1777677692 | 17.22° C | 99% | 1010 hPa | 0 mm | - | - | - |
| 1777677093 | 16.67° C | 99% | 1009.9 hPa | 0 mm | - | - | - |
| 1777676492 | 16.67° C | 99% | 1009.9 hPa | 0 mm | - | - | - |
| 1777675892 | 17.22° C | 99% | 1009.9 hPa | 0 mm | - | - | - |
| 1777675292 | 17.22° C | 99% | 1010.4 hPa | 0 mm | - | - | - |
| 1777674693 | 17.22° C | 99% | 1010 hPa | 0 mm | - | - | - |
| 1777674093 | 17.78° C | 99% | 1009.4 hPa | 0 mm | - | - | - |
| 1777673493 | 17.22° C | 99% | 1009.5 hPa | 0 mm | - | - | - |
| 1777672892 | 17.22° C | 99% | 1009.3 hPa | 1.02 mm | - | - | - |
| 1777672292 | 17.22° C | 98% | 1009 hPa | 0.25 mm | - | - | - |
| 1777671692 | 17.22° C | 99% | 1009 hPa | 0 mm | - | - | - |
| 1777671092 | 17.22° C | 98% | 1009.6 hPa | 1.27 mm | - | - | - |
| 1777670492 | 17.78° C | 98% | 1009.5 hPa | 2.54 mm | - | - | - |
| 1777669892 | 17.78° C | 97% | 1009.5 hPa | 1.02 mm | - | - | - |
| 1777669292 | 17.78° C | 96% | 1009.8 hPa | 1.02 mm | - | - | - |
| 1777668692 | 18.33° C | 93% | 1010 hPa | 0 mm | - | - | - |
| 1777668092 | 18.33° C | 95% | 1009.9 hPa | 1.02 mm | - | - | - |
| 1777667492 | 18.89° C | 94% | 1010.1 hPa | 2.03 mm | - | - | - |
| 1777666892 | 19.44° C | 94% | 1010.1 hPa | 3.3 mm | - | - | - |
* Rain latest hour (hover to see other rain measurements)
** Current wind speed in m/s (hover to see current wind gust speed)